Date String (YYYY-MM-DD hh:mm:ss) UTC,Instrument flags,absolute air pressure of the measurement (hPa),sample flow rate (lpm),inlet stack bypass flow (lpm),air temperature of the measurement (°C),ambient temperature measured by the external sensor (°C),aerosol sample conditioner tube jacket temperature (°C),OPC LED temperature (°C),internal box temperature (°C),relative humidity of the measurement (%),span deviation,mass concentration of particles derived from Lorenz-Mie calculation of OPC scattering (μg/m³),mass concentration of particles derived from Lorenz-Mie calculation of OPC scattering (μg/m³),mass concentration of particles derived from Lorenz-Mie calculation of OPC scattering (μg/m³)
DateTimeUTC,F1_M11,P_M11,Q1_M11,Q2_M11,T1_M11,T2_M11,T3_M11,T4_M11,T5_M11,U1_M11,ZSPAN_M11,X2_M11,X0_M11,X1_M11
2023-09-12 20:00:00,SystemResetWarning,0832.9,4.99,000.00,027.9,025.7,000.0,036.3,029.4,23.7,0000.9,0004.73,0009.23,0004.52
2023-09-12 20:01:00,SystemResetWarning,0832.8,5.00,000.00,027.9,026.1,000.0,036.3,029.5,23.5,0000.5,0004.71,0009.53,0004.49
2023-09-12 20:02:00,SystemResetWarning,0832.9,4.99,000.00,028.0,026.4,000.0,036.3,029.6,22.8,0000.3,0004.73,0009.66,0004.50
2023-09-12 20:03:00,SystemResetWarning,0832.8,4.99,000.00,028.0,026.6,000.0,036.4,029.7,23.3,-000.0,0004.75,0009.62,0004.51
2023-09-12 20:04:00,SystemResetWarning,0832.9,4.99,000.00,028.1,026.9,000.0,036.4,029.7,23.1,0000.1,0004.78,0009.68,0004.53
2023-09-12 20:05:00,SystemResetWarning,0832.8,5.00,000.00,028.1,027.0,000.0,036.4,029.8,22.9,0000.2,0004.83,0009.79,0004.56
2023-09-12 20:06:00,SystemResetWarning,0832.8,5.01,000.00,028.1,027.2,000.0,036.4,029.9,22.5,0000.1,0004.87,0009.79,0004.59
2023-09-12 20:07:00,SystemResetWarning,0832.8,5.01,000.00,028.2,027.3,000.0,036.5,029.9,22.2,0000.6,0004.94,0009.78,0004.63
2023-09-12 20:08:00,SystemResetWarning,0832.8,5.00,000.00,028.3,027.5,000.0,036.5,030.0,21.6,0000.7,0005.00,0009.44,0004.67
2023-09-12 20:09:00,SystemResetWarning,0832.7,4.97,000.00,028.3,026.6,000.0,036.5,029.9,22.1,0001.0,0005.02,0009.22,0004.70
2023-09-12 20:10:00,SystemResetWarning,0832.7,5.01,000.00,028.2,024.8,000.0,036.4,029.5,21.8,0001.1,0005.02,0008.97,0004.69
2023-09-12 20:11:00,SystemResetWarning,0832.7,5.00,000.00,028.1,024.1,000.0,036.3,029.4,21.7,0001.1,0005.06,0008.85,0004.70
2023-09-12 20:12:00,SystemResetWarning,0832.6,5.01,000.00,028.0,024.3,000.0,036.3,029.3,21.8,0001.3,0005.04,0008.49,0004.69
2023-09-12 20:13:00,SystemResetWarning,0832.6,5.00,000.00,028.0,024.7,000.0,036.3,029.3,22.1,0001.6,0005.00,0008.28,0004.67
2023-09-12 20:14:00,SystemResetWarning,0832.7,5.00,000.00,027.9,025.2,000.0,036.3,029.3,22.2,0001.8,0004.96,0008.28,0004.64
2023-09-12 20:15:00,SystemResetWarning,0832.6,5.00,000.00,027.9,025.6,000.0,036.3,029.4,22.3,0001.6,0004.93,0008.20,0004.62
2023-09-12 20:16:00,SystemResetWarning,0832.6,4.99,000.00,028.0,025.9,000.0,036.4,029.5,22.8,0001.3,0004.91,0008.16,0004.59
2023-09-12 20:17:00,SystemResetWarning,0832.5,5.00,000.00,028.0,026.3,000.0,036.4,029.6,22.6,0001.4,0004.90,0008.12,0004.59
2023-09-12 20:18:00,SystemResetWarning,0832.5,5.00,000.00,028.0,026.6,000.0,036.4,029.7,23.7,0001.1,0004.88,0008.06,0004.57
2023-09-12 20:19:00,SystemResetWarning,0832.5,5.00,000.00,028.1,026.8,000.0,036.4,029.8,23.4,0001.0,0004.84,0007.96,0004.54
2023-09-12 20:20:00,SystemResetWarning,0832.5,5.01,000.00,028.1,027.0,000.0,036.4,029.8,23.3,0000.5,0004.81,0007.94,0004.51
2023-09-12 20:21:00,SystemResetWarning,0832.6,5.00,000.00,028.2,027.2,000.0,036.5,029.9,22.2,-000.3,0004.79,0007.80,0004.50
2023-09-12 20:22:00,SystemResetWarning,0832.5,4.99,000.00,028.2,027.3,000.0,036.5,030.0,22.2,-000.3,0004.76,0007.63,0004.50
2023-09-12 20:23:00,SystemResetWarning,0832.6,4.99,000.00,028.3,027.5,000.0,036.5,030.0,23.0,-000.6,0004.79,0007.63,0004.52
2023-09-12 20:24:00,SystemResetWarning,0832.6,4.98,000.00,028.3,026.5,000.0,036.5,029.9,22.2,-000.6,0004.80,0007.67,0004.53
2023-09-12 20:25:00,SystemResetWarning,0832.5,5.00,000.00,028.2,024.7,000.0,036.4,029.5,23.0,-000.2,0004.77,0007.59,0004.50
2023-09-12 20:26:00,SystemResetWarning,0832.6,5.02,000.00,028.1,024.2,000.0,036.3,029.4,23.2,0000.5,0004.72,0007.56,0004.44
2023-09-12 20:27:00,SystemResetWarning,0832.5,5.00,000.00,028.1,024.4,000.0,036.3,029.4,23.9,0001.1,0004.64,0007.52,0004.38
2023-09-12 20:28:00,SystemResetWarning,0832.5,4.99,000.00,028.0,024.8,000.0,036.3,029.3,23.4,0001.0,0004.55,0007.42,0004.30
2023-09-12 20:29:00,SystemResetWarning,0832.5,5.00,000.00,027.9,025.2,000.0,036.3,029.4,24.1,0000.9,0004.46,0007.21,0004.22
2023-09-12 20:30:00,SystemResetWarning,0832.5,5.02,000.00,028.0,025.6,000.0,036.4,029.5,23.2,0000.6,0004.42,0007.00,0004.19
2023-09-12 20:31:00,SystemResetWarning,0832.5,5.00,000.00,028.0,026.0,000.0,036.4,029.6,23.3,0000.6,0004.44,0007.39,0004.20
2023-09-12 20:32:00,SystemResetWarning,0832.5,4.99,000.00,028.0,026.3,000.0,036.4,029.6,23.1,0001.0,0004.49,0007.87,0004.22
2023-09-12 20:33:00,SystemResetWarning,0832.5,5.00,000.00,028.1,026.6,000.0,036.4,029.7,22.8,0000.7,0004.49,0007.87,0004.23
2023-09-12 20:34:00,SystemResetWarning,0832.5,5.00,000.00,028.1,026.9,000.0,036.4,029.8,22.7,0001.3,0004.47,0007.86,0004.21
2023-09-12 20:35:00,SystemResetWarning,0832.5,5.00,000.00,028.1,027.1,000.0,036.4,029.8,22.7,0001.4,0004.46,0007.88,0004.20
2023-09-12 20:36:00,SystemResetWarning,0832.5,5.00,000.00,028.2,027.2,000.0,036.5,029.9,22.9,0000.9,0004.48,0007.91,0004.22
2023-09-12 20:37:00,SystemResetWarning,0832.5,5.01,000.00,028.3,027.4,000.0,036.5,030.0,23.1,0000.1,0004.51,0008.22,0004.25
2023-09-12 20:38:00,SystemResetWarning,0832.5,5.00,000.00,028.3,027.5,000.0,036.5,030.1,22.7,-000.2,0004.52,0008.22,0004.28
2023-09-12 20:39:00,SystemResetWarning,0832.5,4.98,000.00,028.3,026.4,000.0,036.5,029.9,22.5,0000.2,0004.59,0008.35,0004.33
2023-09-12 20:40:00,SystemResetWarning,0832.5,5.01,000.00,028.2,024.7,000.0,036.4,029.5,22.4,0000.7,0004.64,0008.46,0004.37
2023-09-12 20:41:00,SystemResetWarning,0832.5,5.00,000.00,028.2,024.2,000.0,036.3,029.5,22.3,0000.6,0004.71,0008.56,0004.41
2023-09-12 20:42:00,SystemResetWarning,0832.5,5.01,000.00,028.1,024.4,000.0,036.3,029.3,22.6,0000.8,0004.71,0008.49,0004.40
2023-09-12 20:43:00,SystemResetWarning,0832.4,5.01,000.00,028.0,024.8,000.0,036.3,029.3,22.4,0001.3,0004.66,0008.15,0004.37
2023-09-12 20:44:00,SystemResetWarning,0832.4,4.99,000.00,028.0,025.3,000.0,036.4,029.4,22.8,0001.6,0004.65,0008.16,0004.35
2023-09-12 20:45:00,SystemResetWarning,0832.4,5.00,000.00,028.0,025.7,000.0,036.4,029.5,22.6,0001.9,0004.64,0008.17,0004.33
2023-09-12 20:46:00,SystemResetWarning,0832.3,5.00,000.00,028.0,026.1,000.0,036.4,029.6,23.0,0001.4,0004.58,0008.02,0004.29
2023-09-12 20:47:00,SystemResetWarning,0832.3,5.00,000.00,028.1,026.4,000.0,036.4,029.7,22.7,0001.5,0004.56,0008.02,0004.27
2023-09-12 20:48:00,SystemResetWarning,0832.3,4.99,000.00,028.1,026.7,000.0,036.4,029.7,22.7,0001.8,0004.55,0007.79,0004.27
2023-09-12 20:49:00,SystemResetWarning,0832.3,5.00,000.00,028.1,026.9,000.0,036.4,029.8,22.5,0002.3,0004.56,0007.62,0004.27
2023-09-12 20:50:00,SystemResetWarning,0832.3,5.00,000.00,028.2,027.1,000.0,036.5,029.9,22.4,0002.1,0004.54,0007.55,0004.24
2023-09-12 20:51:00,SystemResetWarning,0832.3,5.00,000.00,028.2,027.3,000.0,036.5,030.0,22.4,0001.9,0004.50,0007.43,0004.23
2023-09-12 20:52:00,SystemResetWarning,0832.3,5.00,000.00,028.3,027.4,000.0,036.5,030.0,22.5,0001.0,0004.48,0007.43,0004.21
2023-09-12 20:53:00,SystemResetWarning,0832.3,4.99,000.00,028.3,027.0,000.0,036.5,030.0,22.7,0000.4,0004.47,0007.43,0004.21
2023-09-12 20:54:00,SystemResetWarning,0832.2,4.99,000.00,028.3,025.3,000.0,036.4,029.7,22.8,0000.0,0004.48,0007.32,0004.22
2023-09-12 20:55:00,SystemResetWarning,0832.2,5.00,000.00,028.2,024.2,000.0,036.4,029.5,22.9,0000.2,0004.48,0007.21,0004.23
2023-09-12 20:56:00,SystemResetWarning,0832.2,5.01,000.00,028.1,024.3,000.0,036.3,029.4,23.7,0000.0,0004.49,0007.43,0004.23
2023-09-12 20:57:00,SystemResetWarning,0832.2,4.99,000.00,028.0,024.7,000.0,036.3,029.4,23.6,0000.0,0004.53,0007.62,0004.25
2023-09-12 20:58:00,SystemResetWarning,0832.2,4.99,000.00,028.0,025.1,000.0,036.3,029.4,23.9,0000.0,0004.58,0007.70,0004.26
2023-09-12 20:59:00,SystemResetWarning,0832.2,5.00,000.00,028.0,025.5,000.0,036.4,029.5,24.1,0000.0,0004.61,0007.82,0004.29
